Regional Weather Roundup
Issued by NWS Wakefield, VA

Home | Current Version | Previous Version | Graphics & Text | Print | Product List | Glossary On
Versions: 1 2 3 4 5 6 7 8 9 10 11 12 13 14 15 16 17 18 19 20 21 22 23 24 25 26 27 28 29 30 31 32 33 34 35 36 37 38 39 40 41 42 43 44 45 46 47 48 49 50
000
ASUS41 KAKQ 230315
RWRAKQ

REGIONAL WEATHER ROUNDUP
NATIONAL WEATHER SERVICE WAKEFIELD VA
1100 PM EDT THU JUN 22 2017

Note: "fair" indicates few or no clouds below 12,000 feet with no
significant weather and/or obstructions to visibility. * = Denotes
station may not report precipitation (e.g., rain,snow,etc.),
thunder or fog.

VAZ042-051-052>054-056-230400-
NORTHERN VIRGINIA

CITY           SKY/WX    TMP DP  RH WIND       PRES   REMARKS
WASH NATIONAL  MOCLDY    81  77  88 S7        29.96S
DULLES         MOCLDY    76  70  82 S6        29.96S
FORT BELVOIR   PTCLDY    77  71  80 SE3       29.96S
QUANTICO       CLOUDY    81  74  79 SW6       29.97S
FREDERICKSBRG* CLOUDY    78  73  83 SW6       29.97S
STAFFORD*      PTCLDY    75  73  95 CALM      30.01F
WARRENTON      CLOUDY    78  69  75 S5        29.97S
CULPEPER*      PTCLDY    73  72  98 CALM      29.98S
MANASSAS*      PTCLDY    73  71  93 S5        29.97S
LEESBURG*      MOCLDY    79  73  83 SW5       29.97F
WINCHESTER     CLOUDY    73  70  88 CALM      29.97S
FRONT ROYAL*   MOCLDY    77  72  83 CALM      29.97R
LURAY*         PTCLDY    75  70  83 CALM      30.00R
$$

VAZ048-049-060>072-079>083-230400-
CENTRAL AND SOUTH CENTRAL VIRGINIA

CITY           SKY/WX    TMP DP  RH WIND       PRES   REMARKS
RICHMOND       CLOUDY    80  71  74 SW13      30.00S
CHESTERFIELD*  NOT AVBL
PETERSBURG*    CLOUDY    75  68  78 CALM      30.03R
HANOVER        CLOUDY    79  68  69 SW8       30.01S
TAPPAHANNOCK*  CLOUDY    78  69  73 SW5       30.00S
QUINTON*       FAIR      78  72  82 CALM      30.00S
CHARLOTTSVILLE CLOUDY    77  71  82 SW5       30.00R
GORDONSVILLE*  CLOUDY    76  71  86 SW6       29.99S
ORANGE*        CLOUDY    72  70  94 CALM      29.99S
LOUISA*        MOCLDY    81  73  78 S5        29.99F
BUMPASS*       FAIR      76  72  87 SW6       29.99F
FARMVILLE*     CLOUDY    76  66  69 SW7       30.01S
CREWE*         FAIR      76  70  83 SW5       30.03R
FORT PICKETT*  FAIR      75  71  87 SW8       30.04R
CHASE CITY*    FAIR      74  74  99 CALM      30.04S
CLARKSVILLE*   FAIR      73  73 100 SW5       30.04S
SOUTH HILL*    CLOUDY    74  72  93 SW7       30.09F
LAWRENCEVILLE* FAIR      75  70  85 SW8       30.03S
EMPORIA*       CLOUDY    75  70  83 S3        30.04S
$$

VAZ088>098-230400-
SOUTHEAST VIRGINIA

CITY           SKY/WX    TMP DP  RH WIND       PRES   REMARKS
NORFOLK        CLOUDY    82  73  74 SW10      30.00R
VIRGINIA BEACH CLOUDY    79  72  79 SW7       30.00R
NORFOLK NAVAL  CLOUDY    82  72  71 SW9       30.02R
WEST POINT*    CLOUDY    78  72  81 SW3       30.01S
SALUDA*        FAIR      79  73  81 SW5       29.99S
NEWPORT NEWS   CLOUDY    80  74  81 SW12      30.00R
LANGLEY AFB    CLOUDY    80  75  84 SW12      30.00R
FORT EUSTIS    CLOUDY    80  74  84 SW7       29.98S
WILLIAMSBURG*  CLOUDY    81  75  83 CALM      30.01S
HR EXEC AP*    FAIR      79  72  78 SW6       30.00R
FRANKLIN*      CLOUDY    77  72  83 SW5       30.03R
US460-WAKEFLD  CLOUDY    78  73  84 SW3       30.02R
$$

VAZ020-022-025-037-045-230400-
WEST CENTRAL AND SOUTHWEST VIRGINIA

CITY           SKY/WX    TMP DP  RH WIND       PRES   REMARKS
STAUNTON*      CLOUDY    75  67  76 S5        30.05R
WAYNESBORO*    CLOUDY    73  69  85 SW5       30.05R
HOT SPRINGS VA RAIN      68  61  77 W17G24    30.17S
LYNCHBURG      LGT RAIN  75  71  87 SW6       30.04S
DANVILLE       CLOUDY    73  73 100 SW3       30.06S
SOUTH BOSTON*  FAIR      73  72  96 SW3       30.04F
MARTINSVILLE   CLOUDY    71  68  92 CALM      30.10S
ROANOKE        LGT RAIN  74  70  87 SW5       30.08R
BLACKSBURG     DRIZZLE   70  68  94 CALM      30.14F
DUBLIN*        LGT RAIN  71  67  87 CALM      30.11F
MARION*        RAIN      69  65  88 E3        30.15R
HILLSVILLE*    DRIZZLE   66  62  86 CALM      30.13F
RICHLANDS*     CLOUDY    70  63  80 E5        30.09F
WISE*          CLOUDY    68  68 100 CALM      30.09S
ABINGDON*      DRIZZLE   71  71  98 CALM      30.08S
$$

MDZ021>025-VAZ099-100-230400-
SOUTHERN MARYLAND AND THE DELMARVA PENINSULA

CITY           SKY/WX    TMP DP  RH WIND       PRES   REMARKS
PATUXENT RIVER CLOUDY    78  73  84 SW6       29.97S
BAY BRIDGE APT CLEAR     79  73  83 SW6       29.95S
LEONARDTOWN    CLOUDY    79  72  78 SW3       29.99S
DOVER          PTCLDY    77  77 100 S6        29.94S
GEORGETOWN     PTCLDY    77  73  87 SW5       29.97S
EASTON         CLEAR     79  73  82 SW3       30.00S
CAMBRIDGE      CLEAR     77  73  88 CALM      29.97S
SALISBURY      PTCLDY    76  75  97 SW8       29.97S
OCEAN CITY     MOCLDY    72  70  93 W3        29.98S
WALLOPS ISLAND CLOUDY    77  74  90 SW5       29.99R
ACCOMACK*      CLOUDY    78  74  87 SW6       29.99S
$$

NCZ012>017-030>032-230400-
NORTH CENTRAL AND EASTERN NORTH CAROLINA

CITY           SKY/WX    TMP DP  RH WIND       PRES   REMARKS
ROANOKE RAPIDS FAIR      73  72  94 SW7       30.04S
RALEIGH        MOCLDY    74  72  93 SW7       30.08R
ELIZABETH CITY CLOUDY    79  75  87 SW8       30.03R
AHOSKIE*         N/A     75  73  91 S3        30.03F
EDENTON*       CLOUDY    81  76  84 CALM      30.04S
CURRITUCK*     CLOUDY    80  76  89 SW6       30.03R
KILL DEVIL HLS CLOUDY    79  73  83 SW3       30.03R
MANTEO         CLOUDY    79  74  85 W8        30.04S
CAPE HATTERAS  CLOUDY    80  76  87 SW8       30.06R
TARBORO*       NOT AVBL
GOLDSBORO      MOCLDY    76  76 100 SW5       30.06R
WASHINGTON     CLOUDY    77  76  95 SW7       30.06S
GREENVILLE     CLOUDY    77  77 100 SW6       30.07S
NEW BERN       CLOUDY    77  76  96 SW6       30.08S
WILMINGTON     CLOUDY    78  77  96 S6        30.07F
$$

VAZ048-230400-
ELSEWHERE

CITY           SKY/WX    TMP DP  RH WIND       PRES   REMARKS
HARRISBURG PA  CLOUDY    73  69  87 NW6       29.93F
BALTIMORE      CLOUDY    78  73  84 S3        29.95S
ANNAPOLIS      PTCLDY    81  77  88 CALM      29.95S
ANDREWS AFB    CLEAR     77  71  81 SW6       29.96F
PHILADELPHIA   CLOUDY    81  71  71 S6        29.93S
HENDERSON NC   LGT RAIN  71  68  91 SW7       30.06S
GREENSBORO     LGT RAIN  73  73 100 SW6       30.08S
ROCKY MOUNT    CLOUDY    74  72  93 SW7       30.06R
$$

VAZ100-230400-
MARINE

STATION/POSITION TIME  TEMP    WIND        PRES    WAVE   SWELL
                       AIR SEA DIR/SP/G            HT/PER HT/PER
                 (UTC) (F)     (DEG/KT/KT) (MB)    (FT/S) (FT/S)
BRANDYWINE LGT   0248          220/ 12/ 12   N/A
CAPE MAY NJ      0248   76 69  170/  4/  5 1014.3F
LEWES DE         0242   78 73  170/  2/  4 1014.6S
15NM E FENWICK I 0250   70 68  200/  6/  8 1015.4S   2/ 7   2/ 7
OCEAN-CITY-INLET 0242   67 63  210/  4/  5 1015.3S
WACHAPREAGUE VA  0242   80 81  220/  2/  3 1015.5R
THOMAS POINT MD  0300   80 79  200/  9/  9   N/A
GOOSES REEF MD   0300   81 80  260/  6/  8 1015.5    0
COVE POINT MD    0242   81     250/  7/ 10 1015.4R
SOLOMONS ISLAND  0242   80 77  270/  1/  3   N/A
BISHOPS HEAD MD  0242   81 83  230/  9/ 10 1015.2S
PINEY POINT MD   0248          230/  5/  6   N/A
POTOMAC MD       0300   80 79  240/  8/ 10 1014.1    1
CAMBRIDGE MD     0242   79 82              1015.5S
LEWISETTA VA     0242   80 79  250/  5/  6 1015.1R
RAPPAHANNOCK LGT 0248          220/  8/  8 1016.3R
STINGRAY PT      0250   80     240/  6/  8 1015.5R
YORK RVR RNG VA  0242   80     260/  6/  8 1016.2R
YORKTOWN VA      0242   80 77  280/  5/  7 1015.5R
JAMESTOWN VA     0300   80 83  230/  8/ 10   N/A
DOMINION TERM VA 0242   80     230/ 10/ 12 1016.2R
KIPTOPEKE VA     0248      76  220/  3/  3   N/A
CHES BAY BRIDGE  0242   80 70  260/ 13/ 16 1015.8R
CAPE HENRY VA    0242   81     240/ 10/ 16   N/A
WILLOUBY STN VA  0242   80     240/ 13/ 15 1015.8R
S CRANEY ISL VA  0242   81     230/  7/ 11 1015.9R
CAPE HENRY BUOY  0200      76                N/A     2/ 7
1ST LANDING BUOY 0300   79 71              1016.1    1
CAPE CHARLES BUO 0251      70                N/A     2/ 9
64NM E OF VA BCH 0250   74 71  230/ 10/ 12 1016.5F   3/ 9   2/ 9
DUCK PIER NC     0242   80 66  230/ 12/ 16 1016.4S
OREGON INLET NC  0248          230/ 12/ 15   N/A
HATTERAS NC      0242   79 80  230/  7/ 10 1017.7R
DIAMOND SHLS NC  0250   80 80  230/ 12/ 14 1017.8R   3/ 8   3/ 8
CAPE LOOKOUT NC  0300   79     230/  5/  7 1018.1S
$$



USA.gov is the U.S. government's official web portal to all federal, state and local government web resources and services.